Port Hope, MI

2:06 AM EDT on April 21, 2018 (GMT -0400)
Port Hope

Weather History for KP58 - September, 2012

Change the Weather History Date:

Monday, September 10, 2012

  Actual Average Record
Temperature  
Mean Temperature 60 °F -  
Max Temperature 69 °F 73 °F 95 °F (2013)
Min Temperature 55 °F 57 °F 44 °F (2017)
Degree Days  
Heating Degree Days 4    
Growing Degree Days 10 (Base 50)    
Moisture  
Dew Point 49 °F    
Average Humidity 62    
Maximum Humidity 77    
Minimum Humidity 52    
Precipitation  
Precipitation 0.00 in - - ()
Sea Level Pressure  
Sea Level Pressure 30.14 in    
Wind  
Wind Speed 2 mph (South)    
Max Wind Speed 9 mph    
Max Gust Speed -    
Averages and records for this station are not official NWS values.
T = Trace of Precipitation, MM = Missing Value Source: NWS Daily Summary

Daily Weather History Graph

Daily Weather History Graph

Search for Another Location

Airport or City:

Astronomy

Sep. 10, 2012 Rise Set
Actual Time 7:05 AM EDT 7:49 PM EDT
Civil Twilight 6:36 AM EDT 8:19 PM EDT
Nautical Twilight 6:01 AM EDT 8:53 PM EDT
Astronomical Twilight 5:25 AM EDT 9:29 PM EDT
Moon 1:16 AM EDT (9/10) 4:27 PM EDT (9/10)
Length of Visible Light 13h 43m
Length of Day
12h 44m
Waning Crescent, 30% of the Moon is Illuminated
Sep 10
Waning Crescent
Sep 15
New
Sep 22
First Quarter
Sep 29
Full
Oct 8
Last Quarter

Hourly Weather History & Observations

Time (EDT) Temp. Dew Point Humidity Pressure Visibility Wind Dir Wind Speed Gust Speed Precip Events Conditions
12:51 AM 63.0 °F 45.0 °F 52% 30.07 in - Calm Calm - N/A   Unknown
1:51 AM 62.1 °F 46.0 °F 56% 30.08 in - Calm Calm - N/A   Unknown
2:51 AM 62.1 °F 48.9 °F 62% 30.08 in - Variable 3.5 mph - N/A   Unknown
3:51 AM 61.0 °F 50.0 °F 67% 30.10 in - Variable 3.5 mph - N/A   Unknown
4:51 AM 61.0 °F 48.9 °F 64% 30.11 in - Calm Calm - N/A   Unknown
5:51 AM 59.0 °F 48.9 °F 69% 30.12 in - Variable 4.6 mph - N/A   Unknown
6:51 AM 55.9 °F 46.9 °F 72% 30.14 in - WSW 4.6 mph - N/A   Unknown
7:51 AM 55.0 °F 48.0 °F 77% 30.18 in - WSW 4.6 mph - N/A   Unknown
8:51 AM 62.1 °F 48.9 °F 62% 30.18 in - Variable 3.5 mph - N/A   Unknown
9:51 AM 64.0 °F 48.0 °F 56% 30.19 in - Variable 4.6 mph - N/A   Unknown
10:51 AM 64.0 °F 46.9 °F 54% 30.19 in - Variable 3.5 mph - N/A   Unknown
11:51 AM 64.9 °F 48.0 °F 54% 30.19 in - Variable 3.5 mph - N/A   Unknown
12:51 PM 66.0 °F 48.9 °F 54% 30.19 in - Variable 3.5 mph - N/A   Unknown
1:51 PM 66.9 °F 52.0 °F 59% 30.18 in - Calm Calm - N/A   Unknown
2:51 PM 66.9 °F 51.1 °F 57% 30.17 in - Calm Calm - N/A   Unknown
3:51 PM 66.9 °F 51.1 °F 57% 30.15 in - NNE 4.6 mph - N/A   Unknown
4:51 PM 66.0 °F 51.1 °F 59% 30.14 in - NE 3.5 mph - N/A   Unknown
5:51 PM 66.9 °F 52.0 °F 59% 30.14 in - ESE 9.2 mph - N/A   Unknown
6:51 PM 64.9 °F 53.1 °F 65% 30.13 in - Calm Calm - N/A   Unknown
7:51 PM 62.1 °F 51.1 °F 67% 30.12 in - Calm Calm - N/A   Unknown
8:51 PM 60.1 °F 50.0 °F 69% 30.12 in - Variable 3.5 mph - N/A   Unknown
9:51 PM 60.1 °F 50.0 °F 69% 30.12 in - Calm Calm - N/A   Unknown
10:51 PM 59.0 °F 50.0 °F 72% 30.11 in - South 4.6 mph - N/A   Unknown
11:51 PM 59.0 °F 48.0 °F 67% 30.12 in - Calm Calm - N/A   Unknown